Location: Unspecified
(50.7693°N, 0.0000°E)
Time: 13:41:44
(UTC+00:00)

Vanguard 2 - Pass Details

Date: 25 June 2019
Orbit: 553 x 2938 km, 32.9° (Epoch: 17 August)

Event Time Altitude Azimuth Distance (km) Brightness Sun altitude
Rises 10:52:24 0° 245° (WSW) 3,619 10.9 59.4°
Reaches altitude 10° 10:55:33 10° 227° (SW) 2,995 10.8 59.7°
Maximum altitude 11:00:25 18° 186° (S) 2,900 11.2 60.1°
Drops below altitude 10° 11:06:50 10° 148° (SSE) 4,146 11.9 60.6°
Sets 11:12:26 0° 134° (SE) 5,647 12.3 60.9°
